Weather History for KHLC - December, 2014

Change the Weather History Date:

Saturday, December 6, 2014

  Actual Average Record
Temperature  
Mean Temperature 33 °F 32 °F  
Max Temperature 46 °F 44 °F 83 °F (1939)
Min Temperature 20 °F 20 °F -10 °F (1972)
Degree Days  
Heating Degree Days 32    
Moisture  
Dew Point 21 °F    
Average Humidity 63    
Maximum Humidity 82    
Minimum Humidity 39    
Precipitation  
Precipitation 0.00 in 0.04 in 0.02 in (2007)
Month to date precipitation 0.00 0.23  
Year to date precipitation 21.45 22.46  
Sea Level Pressure  
Sea Level Pressure 30.51 in    
Wind  
Wind Speed 6 mph (SE)    
Max Wind Speed 12 mph    
Max Gust Speed -    
Visibility 10 miles    
Events      
T = Trace of Precipitation, MM = Missing Value Source: NWS Daily Summary

Daily Weather History Graph

Daily Weather History Graph

Search for Another Location

Airport or City:

Trip Planner

Search our weather history database for the weather conditions in past years. The results will help you decide how hot, cold, wet, or windy it might be!

Date:

Astronomy

Dec. 06, 2014 Rise Set
Actual Time 7:44 AM CST 5:15 PM CST
Civil Twilight 7:15 AM CST 5:45 PM CST
Nautical Twilight 6:41 AM CST 6:19 PM CST
Astronomical Twilight 6:09 AM CST 6:51 PM CST
Moon 5:53 PM CST (12/6) 7:37 AM CST (12/6)
Length of Visible Light 10h 30m
Length of Day
9h 30m
Full, 100% of the Moon is Illuminated
Dec 6
Full
Dec 14
Last Quarter
Dec 21
New
Dec 28
First Quarter
Jan 4
Full

Hourly Weather History & Observations

Time (CST) Temp. Windchill Dew Point Humidity Pressure Visibility Wind Dir Wind Speed Gust Speed Precip Events Conditions
12:53 AM 28.9 °F 19.8 °F 19.9 °F 69% 30.43 in 10.0 mi North 10.4 mph - N/A   Clear
1:53 AM 30.0 °F 22.4 °F 19.9 °F 66% 30.43 in 10.0 mi North 8.1 mph - N/A   Clear
2:53 AM 28.0 °F - 19.0 °F 69% 30.47 in 10.0 mi Calm Calm - N/A   Clear
3:53 AM 25.0 °F 19.3 °F 18.0 °F 75% 30.50 in 10.0 mi West 4.6 mph - N/A   Clear
4:53 AM 21.0 °F 13.4 °F 15.1 °F 78% 30.51 in 10.0 mi NW 5.8 mph - N/A   Clear
5:53 AM 23.0 °F 17.0 °F 17.1 °F 78% 30.54 in 10.0 mi West 4.6 mph - N/A   Clear
6:53 AM 21.0 °F - 16.0 °F 81% 30.57 in 10.0 mi Calm Calm - N/A   Clear
7:53 AM 21.0 °F 16.2 °F 16.0 °F 81% 30.59 in 10.0 mi WSW 3.5 mph - N/A   Clear
8:53 AM 26.1 °F 20.5 °F 19.0 °F 75% 30.60 in 10.0 mi SW 4.6 mph - N/A   Clear
9:53 AM 35.1 °F 30.1 °F 21.0 °F 57% 30.61 in 10.0 mi NNE 5.8 mph - N/A   Clear
10:53 AM 37.0 °F 34.5 °F 21.9 °F 54% 30.61 in 10.0 mi Variable 3.5 mph - N/A   Clear
11:53 AM 39.0 °F - 23.0 °F 53% 30.58 in 10.0 mi Calm Calm - N/A   Clear
12:53 PM 41.0 °F 38.0 °F 23.0 °F 49% 30.54 in 10.0 mi SE 4.6 mph - N/A   Clear
1:53 PM 43.0 °F - 21.9 °F 43% 30.52 in 10.0 mi Calm Calm - N/A   Clear
2:53 PM 45.0 °F 42.6 °F 21.0 °F 39% 30.51 in 10.0 mi SSE 4.6 mph - N/A   Clear
3:53 PM 45.0 °F 41.8 °F 21.0 °F 39% 30.51 in 10.0 mi ESE 5.8 mph - N/A   Clear
4:53 PM 42.1 °F 39.2 °F 21.0 °F 43% 30.51 in 10.0 mi ESE 4.6 mph - N/A   Clear
5:53 PM 39.0 °F 34.8 °F 21.9 °F 50% 30.49 in 10.0 mi ESE 5.8 mph - N/A   Clear
6:53 PM 37.0 °F 34.5 °F 21.9 °F 54% 30.49 in 9.0 mi ESE 3.5 mph - N/A   Clear
7:53 PM 35.1 °F 31.0 °F 21.9 °F 59% 30.49 in 10.0 mi ESE 4.6 mph - N/A   Scattered Clouds
8:53 PM 36.0 °F 29.0 °F 24.1 °F 62% 30.48 in 10.0 mi SE 9.2 mph - N/A   Overcast
9:53 PM 35.1 °F 26.9 °F 26.1 °F 70% 30.45 in 10.0 mi SSE 11.5 mph - N/A   Overcast
10:53 PM 33.1 °F 28.7 °F 26.1 °F 75% 30.43 in 10.0 mi SE 4.6 mph - N/A   Overcast
11:53 PM 33.1 °F 24.9 °F 28.0 °F 82% 30.42 in 8.0 mi SE 10.4 mph - N/A   Overcast